Weather History for Rapid City, SD

Change the Weather History Date:

Tuesday, April 29, 2014

  Actual Average Record
Temperature  
Mean Temperature 36 °F 50 °F  
Max Temperature 39 °F 63 °F 85 °F (1951)
Min Temperature 33 °F 36 °F 11 °F (1950)
Degree Days  
Heating Degree Days 29 16  
Month to date heating degree days 620 587  
Since 1 July heating degree days 7270 6715  
Cooling Degree Days 0 0  
Month to date cooling degree days 0 0  
Year to date cooling degree days 0 0  
Moisture  
Dew Point 32 °F    
Average Humidity 91    
Maximum Humidity 100    
Minimum Humidity 82    
Precipitation  
Precipitation 0.20 in 0.09 in 0.95 in (1953)
Month to date precipitation 2.27 1.71  
Year to date precipitation 3.85 3.38  
Snow  
Snow 0.30 in 0.20 in - ()
Month to date snowfall 6.3 7.7  
Since 1 July snowfall 63.7 39.8  
Snow Depth 0.00 in    
Sea Level Pressure  
Sea Level Pressure 30.10 in    
Wind  
Wind Speed 34 mph (NNW)    
Max Wind Speed 48 mph    
Max Gust Speed 57 mph    
Visibility 5 miles    
Events Fog , Rain , Snow    
T = Trace of Precipitation, MM = Missing Value Source: NWS Daily Summary

Daily Weather History Graph

Daily Weather History Graph

Search for Another Location

Airport:

Trip Planner

Search our weather history database for the weather conditions in past years. The results will help you decide how hot, cold, wet, or windy it might be!

Date:

Astronomy

Apr. 29, 2014 Rise Set
Actual Time 5:46 AM MDT 7:53 PM MDT
Civil Twilight 5:15 AM MDT 8:24 PM MDT
Nautical Twilight 4:36 AM MDT 9:03 PM MDT
Astronomical Twilight 3:53 AM MDT 9:46 PM MDT
Moon 6:06 AM MDT (4/29) 8:36 PM MDT (4/29)
Length of Visible Light 15h 09m
Length of Day
14h 06m
New Moon, 0% of the Moon is Illuminated
Apr 29
New Moon
May 6
First Quarter
May 14
Full
May 21
Last Quarter
May 28
New

Hourly Weather History & Observations

Time (MDT) Temp. Windchill Dew Point Humidity Pressure Visibility Wind Dir Wind Speed Gust Speed Precip Events Conditions
12:06 AM 36.0 °F 22.8 °F 34.0 °F 93% 29.88 in 8.0 mi North 31.1 mph 39.1 mph 0.00 in Snow Light Snow
12:27 AM 36.0 °F 23.2 °F 33.1 °F 89% 29.90 in 6.0 mi North 28.8 mph 42.6 mph 0.01 in Snow Light Snow
12:39 AM 34.0 °F 19.7 °F 32.0 °F 92% 29.91 in 3.0 mi North 33.4 mph 39.1 mph 0.01 in Snow Light Snow
12:52 AM 34.0 °F 19.1 °F 32.0 °F 92% 29.97 in 3.0 mi North 36.8 mph 43.7 mph 0.01 in Snow Light Snow
12:59 AM 34.0 °F 19.9 °F 32.0 °F 92% 29.91 in 2.5 mi North 32.2 mph 42.6 mph 0.00 in Snow Light Snow
1:26 AM 34.0 °F 19.7 °F 32.0 °F 92% 29.92 in 4.0 mi NNW 33.4 mph 41.4 mph 0.02 in Snow Light Snow
1:52 AM 34.0 °F 19.7 °F 32.0 °F 92% 29.98 in 4.0 mi NNW 33.4 mph 43.7 mph 0.02 in Snow Light Snow
2:52 AM 34.0 °F 19.7 °F 30.9 °F 89% 30.00 in 3.0 mi NNW 33.4 mph 46.0 mph 0.01 in Snow Light Snow
3:44 AM 33.1 °F 18.2 °F 30.9 °F 92% 29.93 in 2.5 mi NNW 34.5 mph 48.3 mph 0.01 in Snow Light Snow
3:52 AM 33.1 °F 18.2 °F 30.9 °F 92% 30.00 in 2.0 mi NNW 34.5 mph 51.8 mph 0.01 in Snow Light Snow
4:00 AM 33.1 °F 16.9 °F 30.9 °F 92% 29.93 in 1.8 mi NNW 42.6 mph 50.6 mph 0.01 in Snow Light Snow
4:34 AM 33.1 °F 18.0 °F 30.9 °F 92% 29.94 in 2.0 mi NNW 35.7 mph 46.0 mph 0.02 in Snow Light Snow
4:43 AM 33.1 °F 18.2 °F 30.9 °F 92% 29.95 in 1.5 mi NNW 34.5 mph 48.3 mph 0.02 in Snow Light Snow
4:52 AM 33.8 °F 18.8 °F 30.2 °F 87% 29.96 in 1.5 mi NNW 36.8 mph 48.3 mph N/A Snow Light Snow
5:52 AM 33.1 °F 17.5 °F 30.9 °F 92% 30.05 in 0.8 mi NNW 39.1 mph 51.8 mph 0.03 in Snow Light Snow
6:30 AM 33.1 °F 16.9 °F 30.0 °F 89% 30.00 in 1.0 mi NNW 42.6 mph 52.9 mph 0.00 in Snow Light Snow
6:35 AM 33.1 °F 18.0 °F 30.0 °F 89% 30.00 in 0.8 mi NNW 35.7 mph 52.9 mph 0.00 in Snow Light Snow
6:52 AM 33.8 °F 18.5 °F 30.2 °F 87% 30.00 in 0.8 mi NNW 39.1 mph 48.3 mph N/A Snow Light Snow
7:33 AM 33.1 °F 17.5 °F 30.0 °F 89% 30.01 in 1.0 mi NNW 39.1 mph 52.9 mph 0.00 in Snow Light Snow
7:44 AM 33.1 °F 17.6 °F 30.0 °F 89% 30.02 in 0.8 mi NNW 38.0 mph 49.5 mph 0.00 in Snow Light Snow
7:52 AM 33.1 °F 16.9 °F 30.0 °F 89% 30.10 in 0.8 mi NNW 42.6 mph 51.8 mph 0.00 in Snow Light Snow
7:59 AM 33.1 °F 16.3 °F 30.0 °F 89% 30.02 in 1.0 mi NNW 47.2 mph 55.2 mph 0.00 in Snow Light Snow
8:06 AM 33.1 °F 16.9 °F 30.0 °F 89% 30.02 in 0.8 mi NNW 42.6 mph 55.2 mph 0.00 in Snow Light Snow
8:08 AM 33.1 °F 16.6 °F 30.9 °F 92% 30.02 in 1.0 mi NNW 44.9 mph 55.2 mph 0.00 in Snow Light Snow
8:47 AM 33.8 °F 19.4 °F 33.8 °F 100% 30.04 in 0.8 mi NNW 33.4 mph 47.2 mph 0.00 in Snow Light Snow
8:52 AM 33.8 °F 19.0 °F 33.8 °F 100% 30.05 in 0.5 mi NNW 35.7 mph 46.0 mph N/A Fog , Snow Snow
9:10 AM 33.1 °F 18.0 °F 33.1 °F 100% 30.05 in 1.0 mi NNW 35.7 mph 46.0 mph 0.02 in Snow Light Snow
9:38 AM 34.0 °F 19.3 °F 33.1 °F 96% 30.06 in 0.8 mi NNW 35.7 mph 44.9 mph 0.03 in Snow Light Snow
9:48 AM 35.6 °F 20.8 °F 35.6 °F 100% 30.06 in 2.0 mi NNW 40.3 mph 49.5 mph 0.03 in Snow Light Snow
9:52 AM 36.0 °F 22.2 °F 35.1 °F 97% 30.13 in 7.0 mi NNW 34.5 mph 51.8 mph 0.03 in Snow Light Snow
10:38 AM 37.0 °F 22.5 °F 33.1 °F 86% 30.05 in 10.0 mi NNW 42.6 mph 54.1 mph 0.00 in Rain Light Rain
10:52 AM 36.0 °F 21.0 °F 32.0 °F 86% 30.13 in 4.0 mi NNW 42.6 mph 56.4 mph 0.00 in Snow Light Snow
11:04 AM 36.0 °F 21.6 °F 32.0 °F 86% 30.06 in 6.0 mi NNW 38.0 mph 51.8 mph 0.00 in Snow Light Snow
11:11 AM 36.0 °F 21.5 °F 30.9 °F 82% 30.06 in 4.0 mi NNW 39.1 mph 50.6 mph 0.00 in Snow Light Snow
11:43 AM 36.0 °F 21.5 °F 33.1 °F 89% 30.09 in 2.5 mi NNW 39.1 mph 49.5 mph 0.00 in Snow Light Snow
11:47 AM 37.4 °F 23.8 °F 33.8 °F 87% 30.08 in 3.0 mi NNW 36.8 mph 49.5 mph 0.00 in Snow Light Snow
11:52 AM 37.0 °F 23.3 °F 33.1 °F 86% 30.15 in 2.5 mi NNW 36.8 mph 52.9 mph 0.00 in Snow Light Snow
11:59 AM 36.0 °F 22.0 °F 33.1 °F 89% 30.09 in 1.8 mi NNW 35.7 mph 47.2 mph 0.00 in Snow Light Snow
12:07 PM 36.0 °F 21.8 °F 33.1 °F 89% 30.09 in 2.0 mi NNW 36.8 mph 52.9 mph 0.00 in Snow Light Snow
12:10 PM 36.0 °F 21.6 °F 33.1 °F 89% 30.09 in 1.8 mi NNW 38.0 mph 52.9 mph 0.01 in Snow Light Snow
12:17 PM 35.1 °F 21.8 °F 32.0 °F 89% 30.09 in 1.5 mi NNW 29.9 mph 48.3 mph 0.01 in Snow Light Snow
12:39 PM 36.0 °F 21.3 °F 33.1 °F 89% 30.10 in 2.0 mi NNW 40.3 mph 50.6 mph 0.01 in Snow Light Snow
12:48 PM 35.6 °F 21.5 °F 33.8 °F 93% 30.10 in 1.5 mi NNW 35.7 mph 50.6 mph 0.03 in Snow Light Snow
12:52 PM 37.0 °F 23.0 °F 34.0 °F 89% 30.17 in 1.8 mi NNW 39.1 mph 48.3 mph 0.03 in Snow Light Snow
12:56 PM 36.0 °F 21.3 °F 34.0 °F 93% 30.09 in 3.0 mi NNW 40.3 mph 48.3 mph 0.00 in Snow Light Snow
1:13 PM 37.0 °F 23.0 °F 34.0 °F 89% 30.11 in 7.0 mi NNW 39.1 mph 48.3 mph 0.00 in Snow Light Snow
1:42 PM 36.0 °F 22.0 °F 34.0 °F 93% 30.12 in 4.0 mi NNW 35.7 mph 44.9 mph 0.00 in Snow Light Snow
1:52 PM 37.0 °F 23.5 °F 34.0 °F 89% 30.19 in 5.0 mi NNW 35.7 mph 46.0 mph 0.01 in Snow Light Snow
1:59 PM 37.0 °F 23.5 °F 34.0 °F 89% 30.12 in 5.0 mi NNW 35.7 mph 44.9 mph 0.00 in Snow Light Snow
2:18 PM 37.0 °F 24.3 °F 33.1 °F 86% 30.13 in 5.0 mi NNW 31.1 mph 43.7 mph 0.00 in Snow Light Snow
2:25 PM 37.0 °F 24.7 °F 34.0 °F 89% 30.12 in 7.0 mi NNW 28.8 mph 40.3 mph 0.00 in Snow Light Snow
2:52 PM 37.4 °F 23.6 °F 33.8 °F 87% 30.11 in 7.0 mi NNW 38.0 mph 46.0 mph N/A Snow Light Snow
3:52 PM 37.4 °F 24.4 °F 33.8 °F 87% 30.13 in 10.0 mi NNW 33.4 mph 41.4 mph N/A   Overcast
4:05 PM 37.0 °F 24.5 °F 35.1 °F 93% 30.13 in 9.0 mi NNW 29.9 mph 42.6 mph 0.00 in Snow Light Snow
4:35 PM 37.9 °F 24.9 °F 34.0 °F 86% 30.14 in 9.0 mi NNW 34.5 mph 46.0 mph 0.00 in   Overcast
4:52 PM 37.9 °F 25.5 °F 34.0 °F 86% 30.22 in 10.0 mi NNW 31.1 mph 42.6 mph 0.00 in   Overcast
5:00 PM 37.9 °F 25.1 °F 35.1 °F 89% 30.15 in 10.0 mi NNW 33.4 mph 41.4 mph 0.00 in Rain Light Rain
5:36 PM 37.0 °F 24.7 °F 34.0 °F 89% 30.16 in 6.0 mi North 28.8 mph 40.3 mph 0.00 in Snow Light Snow
5:42 PM 36.0 °F 23.0 °F 33.1 °F 89% 30.17 in 2.5 mi North 29.9 mph 40.3 mph 0.00 in Snow Light Snow
5:50 PM 35.6 °F 22.7 °F 33.8 °F 93% 30.17 in 4.0 mi North 28.8 mph 38.0 mph 0.01 in Snow Light Snow
5:52 PM 36.0 °F 22.8 °F 34.0 °F 93% 30.25 in 7.0 mi North 31.1 mph 39.1 mph 0.01 in Snow Light Snow
6:14 PM 36.0 °F 23.0 °F 33.1 °F 89% 30.18 in 4.0 mi North 29.9 mph 40.3 mph 0.00 in Snow Light Snow
6:52 PM 36.0 °F 23.9 °F 33.1 °F 89% 30.27 in 10.0 mi North 25.3 mph 34.5 mph 0.00 in Rain Light Rain
7:06 PM 36.0 °F 23.7 °F 32.0 °F 86% 30.20 in 10.0 mi North 26.5 mph 38.0 mph 0.00 in   Overcast
7:18 PM 36.0 °F 23.9 °F 32.0 °F 86% 30.21 in 10.0 mi North 25.3 mph 33.4 mph 0.00 in   Overcast
7:52 PM 35.1 °F 22.0 °F 32.0 °F 89% 30.30 in 10.0 mi North 28.8 mph 34.5 mph 0.00 in   Overcast
8:00 PM 35.1 °F 21.8 °F 32.0 °F 89% 30.21 in 10.0 mi North 29.9 mph 39.1 mph N/A   Overcast
8:52 PM 35.6 °F 23.2 °F 32.0 °F 87% 30.22 in 10.0 mi NNW 26.5 mph 35.7 mph N/A   Overcast
9:13 PM 35.1 °F 21.8 °F 32.0 °F 89% 30.22 in 10.0 mi NNW 29.9 mph 36.8 mph N/A   Mostly Cloudy
9:52 PM 34.0 °F 20.8 °F 30.9 °F 89% 30.31 in 10.0 mi NNW 27.6 mph 36.8 mph N/A   Partly Cloudy
10:52 PM 35.1 °F 21.6 °F 30.0 °F 82% 30.32 in 10.0 mi NNW 31.1 mph 38.0 mph N/A   Partly Cloudy
11:52 PM 35.1 °F 22.0 °F 30.0 °F 82% 30.31 in 10.0 mi NW 28.8 mph 35.7 mph N/A   Overcast